Location: Heisler
(52.6701°N, 112.2239°W)
Time: 07:39:38
(UTC+00:00)

Envisat - Pass Details

Date: 06 December 2021
Orbit: 764 x 766 km, 98.2° (Epoch: 25 January)

Event Time Altitude Azimuth Distance (km) Brightness Sun altitude
Rises 12:35:50 0° 15° (NNE) 3,248 6.4 -24.3°
Reaches altitude 10° 12:38:10 10° 17° (NNE) 2,317 5.6 -24.0°
Maximum altitude 12:43:17 76° 104° (ESE) 794 3.1 -23.2°
Drops below altitude 10° 12:48:21 10° 190° (S) 2,299 5.4 -22.5°
Sets 12:50:39 0° 192° (SSW) 3,220 6.2 -22.1°
